カタログに戻る

METEOR 2-6 DEB

運用中PO
NORAD 31406·DEBRIS·🇷🇺 Russia

打ち上げ Sep 9, 1980 から Plesetsk Cosmodrome

Loading…

次のパス (今後24時間)

TLE

最新Source: Space-Track

元期: Sep 13, 2026, 21:30 UTC

1 31406U 80073H   26256.89593801  .00003822  00000-0  98033-3 0  9997
2 31406  81.2155 226.9325 0030074 244.0525 115.7568 14.49897484120580

AllMySatでMETEOR 2-6 DEBをリアルタイム追跡

Download on the App Store